�������l�o���
Date,Time,MP-1(��Sv/h),MP-2(��Sv/h),MP-3(��Sv/h),MP-4(��Sv/h),MP-5(��Sv/h),MP-6(��Sv/h),MP-7(��Sv/h),MP-8(��Sv/h),����,����(m/s),���J
2018/12/25,00:00,0.772,1.154,0.810,1.485,1.052,0.448,0.794,0.752,���k��,3.9,��
2018/12/25,00:10,0.774,1.156,0.809,1.484,1.051,0.447,0.793,0.754,�k��,2.8,��
2018/12/25,00:20,0.773,1.154,0.808,1.485,1.048,0.448,0.792,0.752,���k��,2.8,��
2018/12/25,00:30,0.772,1.150,0.810,1.486,1.049,0.448,0.792,0.754,���쐼,2.3,��
2018/12/25,00:40,0.773,1.154,0.810,1.484,1.051,0.446,0.793,0.752,��,3.6,��
2018/12/25,00:50,0.771,1.153,0.808,1.484,1.052,0.449,0.793,0.753,��,2.8,��
2018/12/25,01:00,0.771,1.151,0.809,1.485,1.048,0.447,0.793,0.754,���쐼,2.8,��
2018/12/25,01:10,0.771,1.152,0.809,1.483,1.050,0.448,0.793,0.753,��,2.3,��
2018/12/25,01:20,0.770,1.154,0.812,1.485,1.050,0.448,0.793,0.753,��,3.2,��
2018/12/25,01:30,0.773,1.153,0.810,1.485,1.050,0.446,0.791,0.753,���k��,4.1,��
2018/12/25,01:40,0.772,1.155,0.812,1.485,1.050,0.448,0.792,0.753,���k��,4.5,��
2018/12/25,01:50,0.771,1.154,0.811,1.483,1.049,0.450,0.794,0.753,���k��,4.2,��
2018/12/25,02:00,0.770,1.152,0.812,1.485,1.050,0.448,0.794,0.754,���k��,4.3,��
2018/12/25,02:10,0.771,1.153,0.811,1.483,1.050,0.447,0.794,0.753,���k��,4.3,��
2018/12/25,02:20,0.770,1.154,0.811,1.483,1.049,0.448,0.793,0.753,���k��,3.7,��
2018/12/25,02:30,0.771,1.154,0.811,1.480,1.048,0.449,0.794,0.752,���k��,3.6,��
2018/12/25,02:40,0.772,1.154,0.811,1.485,1.049,0.449,0.792,0.752,��,3.1,��
2018/12/25,02:50,0.772,1.155,0.812,1.481,1.048,0.449,0.793,0.752,���k��,2.9,��
2018/12/25,03:00,0.773,1.156,0.810,1.483,1.050,0.449,0.794,0.753,��,2.6,��
2018/12/25,03:10,0.770,1.152,0.810,1.482,1.049,0.448,0.794,0.753,��,2.0,��
2018/12/25,03:20,0.772,1.153,0.810,1.485,1.048,0.448,0.793,0.752,���쐼,2.3,��
2018/12/25,03:30,0.770,1.154,0.811,1.484,1.050,0.448,0.794,0.753,���쐼,2.9,��
2018/12/25,03:40,0.771,1.155,0.810,1.482,1.048,0.448,0.793,0.752,���쐼,2.5,��
2018/12/25,03:50,0.771,1.153,0.810,1.483,1.050,0.447,0.792,0.751,��,2.6,��
2018/12/25,04:00,0.770,1.152,0.811,1.482,1.048,0.446,0.793,0.753,���k��,2.3,��
2018/12/25,04:10,0.774,1.156,0.811,1.483,1.047,0.447,0.793,0.753,���k��,2.8,��
2018/12/25,04:20,0.772,1.154,0.811,1.483,1.048,0.449,0.792,0.751,���k��,4.7,��
2018/12/25,04:30,0.771,1.154,0.811,1.482,1.049,0.447,0.792,0.752,���k��,4.5,��
2018/12/25,04:40,0.770,1.154,0.810,1.485,1.049,0.448,0.793,0.751,��,4.6,��
2018/12/25,04:50,0.771,1.152,0.811,1.484,1.046,0.447,0.793,0.752,���k��,5.8,��
2018/12/25,05:00,0.771,1.153,0.810,1.484,1.048,0.447,0.794,0.753,���k��,6.5,��
2018/12/25,05:10,0.770,1.153,0.810,1.484,1.047,0.447,0.792,0.754,��,7.4,��
2018/12/25,05:20,0.771,1.152,0.813,1.485,1.045,0.448,0.793,0.753,��,6.4,��
2018/12/25,05:30,0.771,1.151,0.811,1.486,1.048,0.447,0.794,0.754,��,7.7,��
2018/12/25,05:40,0.771,1.153,0.810,1.484,1.046,0.447,0.793,0.752,��,6.5,��
2018/12/25,05:50,0.770,1.153,0.810,1.483,1.047,0.446,0.794,0.753,��,5.5,��
2018/12/25,06:00,0.773,1.153,0.810,1.484,1.049,0.447,0.794,0.752,��,4.8,��
2018/12/25,06:10,0.773,1.152,0.810,1.484,1.047,0.447,0.795,0.753,��,5.1,��
2018/12/25,06:20,0.772,1.152,0.812,1.481,1.048,0.448,0.795,0.752,���쐼,5.9,��
2018/12/25,06:30,0.772,1.153,0.811,1.483,1.048,0.448,0.793,0.754,���쐼,6.2,��
2018/12/25,06:40,0.771,1.152,0.809,1.484,1.047,0.447,0.794,0.752,���쐼,6.1,��
2018/12/25,06:50,0.774,1.154,0.809,1.484,1.047,0.447,0.793,0.752,���쐼,6.7,��
2018/12/25,07:00,0.772,1.150,0.809,1.484,1.049,0.448,0.793,0.753,���쐼,6.0,��
2018/12/25,07:10,0.771,1.153,0.810,1.482,1.046,0.447,0.793,0.754,��,5.7,��
2018/12/25,07:20,0.773,1.151,0.812,1.482,1.049,0.448,0.794,0.754,��,4.8,��
2018/12/25,07:30,0.771,1.151,0.810,1.484,1.046,0.447,0.793,0.755,���쐼,5.9,��
2018/12/25,07:40,0.772,1.152,0.811,1.486,1.049,0.448,0.791,0.752,���쐼,6.5,��
2018/12/25,07:50,0.772,1.154,0.810,1.483,1.048,0.447,0.796,0.753,���쐼,5.1,��
2018/12/25,08:00,0.773,1.151,0.811,1.484,1.047,0.448,0.797,0.751,���쐼,4.7,��
2018/12/25,08:10,0.769,1.152,0.811,1.484,1.046,0.448,0.794,0.754,��,5.2,��
2018/12/25,08:20,0.774,1.150,0.810,1.484,1.049,0.448,0.793,0.753,��,5.1,��
2018/12/25,08:30,0.774,1.149,0.812,1.487,1.046,0.448,0.795,0.753,��,4.9,��
2018/12/25,08:40,0.773,1.147,0.807,1.483,1.048,0.449,0.793,0.754,��,4.2,��
2018/12/25,08:50,0.773,1.147,0.803,1.484,1.047,0.449,0.796,0.753,��,3.6,��
2018/12/25,09:00,0.772,1.148,0.786,1.485,1.049,0.448,0.795,0.754,��,3.2,��
2018/12/25,09:10,0.776,1.150,0.781,1.485,1.049,0.448,0.795,0.755,��,2.6,��
2018/12/25,09:20,0.775,1.149,0.784,1.486,1.047,0.447,0.798,0.754,��,2.5,��
2018/12/25,09:30,0.774,1.148,0.808,1.485,1.050,0.448,0.795,0.753,��,2.6,��
2018/12/25,09:40,0.774,1.141,0.811,1.475,1.049,0.448,0.795,0.755,���k��,1.9,��
2018/12/25,09:50,0.776,1.141,0.815,1.476,1.049,0.449,0.797,0.753,�쐼,0.6,��
2018/12/25,10:00,0.774,1.133,0.813,1.475,1.049,0.449,0.796,0.754,��쐼,1.2,��
2018/12/25,10:10,0.774,1.142,0.813,1.479,1.049,0.449,0.796,0.754,��,1.7,��
2018/12/25,10:20,0.777,1.144,0.812,1.488,1.049,0.450,0.795,0.754,��쓌,1.4,��
2018/12/25,10:30,0.774,1.140,0.815,1.488,1.049,0.450,0.795,0.756,�k��,1.2,��
2018/12/25,10:40,0.777,1.146,0.813,1.486,1.052,0.449,0.794,0.755,��,1.2,��
2018/12/25,10:50,0.775,1.146,0.813,1.487,1.050,0.451,0.794,0.755,�쓌,1.7,��
2018/12/25,11:00,0.774,1.145,0.812,1.487,1.051,0.449,0.795,0.755,-,CALM,��
2018/12/25,11:10,0.776,1.149,0.813,1.486,1.055,0.450,0.795,0.754,���쓌,1.2,��
2018/12/25,11:20,0.777,1.152,0.813,1.487,1.052,0.451,0.795,0.755,��쓌,2.8,��
2018/12/25,11:30,0.776,1.151,0.812,1.487,1.052,0.451,0.797,0.755,��,3.6,��
2018/12/25,11:40,0.778,1.149,0.815,1.486,1.055,0.450,0.796,0.756,��,3.1,��
2018/12/25,11:50,0.777,1.151,0.815,1.488,1.054,0.451,0.797,0.755,��쓌,4.8,��
2018/12/25,12:00,0.777,1.151,0.815,1.487,1.053,0.451,0.799,0.754,��,4.0,��
2018/12/25,12:10,0.778,1.151,0.817,1.487,1.054,0.450,0.800,0.757,���쐼,4.2,��
2018/12/25,12:20,0.776,1.153,0.815,1.488,1.056,0.450,0.798,0.756,���쐼,7.3,��
2018/12/25,12:30,0.777,1.153,0.815,1.490,1.055,0.450,0.797,0.757,���쐼,7.3,��
2018/12/25,12:40,0.777,1.154,0.813,1.488,1.056,0.451,0.798,0.756,���쐼,6.5,��
2018/12/25,12:50,0.779,1.151,0.817,1.491,1.055,0.450,0.797,0.756,���쐼,6.1,��
2018/12/25,13:00,0.778,1.151,0.816,1.488,1.057,0.451,0.799,0.754,��,6.9,��
2018/12/25,13:10,0.779,1.152,0.817,1.486,1.056,0.451,0.801,0.755,��,4.6,��
2018/12/25,13:20,0.780,1.149,0.816,1.486,1.054,0.452,0.800,0.754,��,3.5,��
2018/12/25,13:30,0.779,1.149,0.816,1.489,1.059,0.453,0.798,0.753,��,3.0,��
2018/12/25,13:40,0.779,1.147,0.816,1.488,1.057,0.452,0.800,0.753,���쐼,3.8,��
2018/12/25,13:50,0.779,1.151,0.815,1.487,1.058,0.451,0.799,0.753,��,4.4,��
2018/12/25,14:00,0.780,1.147,0.816,1.489,1.056,0.454,0.800,0.753,��,3.4,��
2018/12/25,14:10,0.781,1.149,0.815,1.488,1.055,0.452,0.799,0.754,�k��,2.6,��
2018/12/25,14:20,0.779,1.151,0.817,1.489,1.057,0.452,0.800,0.755,���k��,2.0,��
2018/12/25,14:30,0.780,1.148,0.815,1.490,1.057,0.453,0.799,0.755,���쐼,3.9,��
2018/12/25,14:40,0.781,1.149,0.817,1.488,1.057,0.453,0.798,0.756,��,2.2,��
2018/12/25,14:50,0.778,1.150,0.814,1.490,1.056,0.454,0.800,0.756,�쐼,2.0,��
2018/12/25,15:00,0.780,1.154,0.817,1.487,1.057,0.454,0.801,0.758,�쐼,3.9,��
2018/12/25,15:10,0.780,1.158,0.817,1.490,1.057,0.452,0.799,0.757,��쐼,4.9,��
2018/12/25,15:20,0.781,1.154,0.817,1.490,1.058,0.451,0.798,0.755,��쐼,3.8,��
2018/12/25,15:30,0.780,1.154,0.817,1.488,1.055,0.452,0.796,0.757,��쐼,5.9,��
2018/12/25,15:40,0.778,1.159,0.815,1.490,1.057,0.453,0.799,0.756,��,7.7,��
2018/12/25,15:50,0.780,1.157,0.816,1.488,1.059,0.454,0.799,0.754,��쐼,8.8,��
2018/12/25,16:00,0.778,1.160,0.816,1.490,1.057,0.452,0.799,0.755,��,7.9,��
2018/12/25,16:10,0.779,1.159,0.817,1.489,1.056,0.452,0.798,0.756,��쐼,6.6,��
2018/12/25,16:20,0.781,1.160,0.817,1.490,1.057,0.453,0.798,0.757,��쐼,7.1,��
2018/12/25,16:30,0.779,1.161,0.815,1.491,1.056,0.452,0.798,0.754,��쐼,7.4,��
2018/12/25,16:40,0.778,1.159,0.816,1.489,1.056,0.453,0.797,0.756,��쐼,7.2,��
2018/12/25,16:50,0.780,1.159,0.815,1.490,1.055,0.452,0.797,0.756,��쐼,6.7,��
2018/12/25,17:00,0.778,1.160,0.816,1.488,1.058,0.451,0.798,0.754,��쐼,6.1,��
2018/12/25,17:10,0.778,1.160,0.816,1.489,1.057,0.454,0.796,0.754,��쐼,5.5,��
2018/12/25,17:20,0.778,1.161,0.818,1.488,1.057,0.454,0.798,0.754,��쐼,4.9,��
2018/12/25,17:30,0.778,1.161,0.816,1.491,1.057,0.453,0.795,0.756,��쐼,4.4,��
2018/12/25,17:40,0.780,1.160,0.816,1.487,1.055,0.454,0.797,0.753,��쐼,4.7,��
2018/12/25,17:50,0.780,1.161,0.818,1.488,1.057,0.452,0.798,0.755,��쐼,4.7,��
2018/12/25,18:00,0.778,1.159,0.819,1.488,1.057,0.453,0.795,0.756,��쐼,4.1,��
2018/12/25,18:10,0.781,1.159,0.816,1.487,1.056,0.452,0.798,0.755,��쐼,4.0,��
2018/12/25,18:20,0.777,1.161,0.816,1.490,1.057,0.452,0.799,0.754,��쐼,4.7,��
2018/12/25,18:30,0.780,1.161,0.817,1.490,1.055,0.453,0.797,0.754,�쐼,4.1,��
2018/12/25,18:40,0.779,1.159,0.816,1.487,1.058,0.453,0.799,0.756,��쐼,3.9,��
2018/12/25,18:50,0.778,1.159,0.815,1.490,1.058,0.452,0.797,0.755,��쐼,4.8,��
2018/12/25,19:00,0.779,1.162,0.817,1.488,1.057,0.451,0.799,0.756,�쐼,7.2,��
2018/12/25,19:10,0.782,1.161,0.816,1.490,1.057,0.454,0.799,0.754,�쐼,8.2,��
2018/12/25,19:20,0.780,1.162,0.817,1.488,1.057,0.452,0.799,0.756,���쐼,6.5,��
2018/12/25,19:30,0.779,1.159,0.817,1.489,1.057,0.451,0.798,0.756,�쐼,6.2,��
2018/12/25,19:40,0.778,1.158,0.815,1.488,1.057,0.452,0.796,0.756,�쐼,7.0,��
2018/12/25,19:50,0.778,1.160,0.813,1.491,1.056,0.451,0.797,0.755,�쐼,6.7,��
2018/12/25,20:00,0.780,1.161,0.811,1.491,1.057,0.452,0.798,0.755,��쐼,5.4,��
2018/12/25,20:10,0.780,1.159,0.813,1.489,1.057,0.454,0.796,0.756,��쐼,5.0,��
2018/12/25,20:20,0.780,1.159,0.811,1.491,1.057,0.453,0.797,0.755,��쐼,5.8,��
2018/12/25,20:30,0.779,1.159,0.813,1.489,1.057,0.452,0.796,0.755,��쐼,5.3,��
2018/12/25,20:40,0.779,1.161,0.813,1.491,1.057,0.452,0.798,0.755,��쐼,4.4,��
2018/12/25,20:50,0.779,1.162,0.812,1.490,1.060,0.450,0.797,0.755,�쐼,4.2,��
2018/12/25,21:00,0.778,1.161,0.814,1.487,1.058,0.452,0.796,0.756,�쐼,4.2,��
2018/12/25,21:10,0.780,1.159,0.815,1.491,1.055,0.452,0.797,0.756,�쐼,4.5,��
2018/12/25,21:20,0.779,1.159,0.815,1.488,1.057,0.453,0.797,0.754,���쐼,7.2,��
2018/12/25,21:30,0.779,1.159,0.813,1.487,1.058,0.451,0.796,0.755,���쐼,7.5,��
2018/12/25,21:40,0.778,1.162,0.814,1.489,1.058,0.452,0.797,0.755,���쐼,4.5,��
2018/12/25,21:50,0.779,1.162,0.814,1.488,1.057,0.453,0.795,0.754,��쐼,2.5,��
2018/12/25,22:00,0.777,1.158,0.814,1.490,1.054,0.452,0.798,0.756,���쐼,0.8,��
2018/12/25,22:10,0.780,1.160,0.815,1.489,1.058,0.452,0.796,0.757,�쓌,1.4,��
2018/12/25,22:20,0.779,1.160,0.816,1.488,1.058,0.451,0.796,0.754,�쐼,2.2,��
2018/12/25,22:30,0.779,1.160,0.816,1.488,1.056,0.452,0.798,0.756,��쐼,3.6,��
2018/12/25,22:40,0.781,1.158,0.815,1.490,1.057,0.453,0.797,0.754,��쐼,4.8,��
2018/12/25,22:50,0.778,1.161,0.815,1.486,1.058,0.452,0.797,0.754,��쐼,4.2,��
2018/12/25,23:00,0.778,1.159,0.813,1.489,1.056,0.451,0.798,0.755,�쐼,4.3,��
2018/12/25,23:10,0.778,1.158,0.815,1.488,1.058,0.451,0.797,0.755,��,4.0,��
2018/12/25,23:20,0.778,1.160,0.816,1.490,1.058,0.452,0.796,0.756,��,3.1,��
2018/12/25,23:30,0.778,1.160,0.815,1.490,1.055,0.451,0.796,0.756,��,2.6,��
2018/12/25,23:40,0.778,1.160,0.816,1.491,1.059,0.452,0.797,0.756,���쐼,3.3,��
2018/12/25,23:50,0.778,1.158,0.815,1.488,1.058,0.452,0.798,0.756,�쐼,3.5,��
